STARLINK-37914

Last updated on Sun Aug 09 2026 00:02:04 GMT+0000 (Coordinated Universal Time)

1 69964U 26157X 26220.15139456 .00032671 00000+0 59261-3 0 9995 2 69964 53.1598 177.3775 0001262 85.2148 274.9005 15.49328552 4705
UTC large
Height (km)
Speed (km/s)
/
Latitude / Longitude
Inclination (degrees)
Orbital Period (minutes)
Azimuth
Elevation
Range (km)
Doppler Factor

Next 0 passes for location: London (51.5072 / 0.1276)

No passes found over London.
STARLINK-37914